Regional Weather Roundup
Issued by NWS

Home | Current Version | Previous Version | Text Only | Print | Product List | Glossary Off
Versions: 1 2 3 4 5 6 7 8 9 10 11 12 13 14 15 16 17 18 19 20 21 22 23 24 25 26 27 28 29 30 31 32 33 34 35 36 37 38 39 40 41 42 43 44 45 46 47 48 49 50

419
ASUS43 KTOP 290208
RWRKS

WEATHER ROUNDUP FOR KANSAS
NATIONAL WEATHER SERVICE GOODLAND KS
900 PM CDT WED SEP 28 2016

NOTE:  "FAIR" INDICATES FEW OR NO CLOUDS BELOW 12,000 FEET WITH NO
SIGNIFICANT WEATHER AND/OR OBSTRUCTIONS TO VISIBILITY.

KSZ001>006-013>018-027>032-041>047-290300-
NORTHWEST KANSAS

CITY           SKY/WX    TMP DP  RH WIND       PRES   REMARKS
GOODLAND       CLEAR     58  43  57 SE6       30.30R
HAYS           CLEAR     55  37  50 NE8       30.28R
HILL CITY      CLEAR     55  41  59 NE9       30.29R
RUSSELL        CLEAR     57  47  69 E9        30.26R
$$

KSZ061>065-074>080-084>089-290300-
SOUTHWEST KANSAS

CITY           SKY/WX    TMP DP  RH WIND       PRES   REMARKS
DODGE CITY     CLEAR     56  42  59 E8        30.26R
ELKHART          N/A     69  40  34 E10         N/A
GARDEN CITY    CLEAR     65  42  43 E9        30.26R
GREAT BEND     CLEAR     61  43  51 NE8       30.26R
LIBERAL        CLEAR     72  43  35 E14       30.26R
PRATT          CLEAR     55  36  48 N6        30.26R
$$

KSZ066>073-081>083-090>101-290300-
SOUTHEAST KANSAS

CITY           SKY/WX    TMP DP  RH WIND       PRES   REMARKS
CHANUTE        CLEAR     59  49  69 N8        30.21R
COFFEYVILLE    CLEAR     59  48  67 N8        30.20R
HUTCHINSON     CLEAR     60  47  61 NE6       30.25R
MEDICINE LODGE   N/A     58  44  60 N3        30.23R
NEWTON         CLEAR     57  48  72 NE7       30.25R
PARSONS        CLEAR     57  49  74 N5        30.22R
WICHITA INTL   CLEAR     63  48  58 N8        30.23R
WICHITA JABRA  CLEAR     56  49  77 N8        30.23R
WICHITA MCCONL CLEAR     58  47  66 N8        30.23R
WINFIELD       CLEAR     62  48  60 NE8       30.22R
$$

KSZ007>012-019>026-033>040-048>060-102>105-290300-
NORTHEAST KANSAS

CITY           SKY/WX    TMP DP  RH WIND       PRES   REMARKS
CONCORDIA      CLEAR     57  46  66 NE3       30.28R
EMPORIA        CLEAR     56  48  74 N8        30.24R
LAWRENCE       CLEAR     53  49  86 NW6       30.25R
MANHATTAN      CLEAR     57  48  72 NE6       30.26R
MARYSVILLE     CLEAR     54  46  76 NE5       30.28R
OLATHE IND     CLEAR     56  49  77 N9        30.24R
OLATHE EXE     MOCLDY    59  47  64 NE10      30.23R
SALINA         CLEAR     63  45  51 NE5       30.27R
TOPEKA BILLARD CLEAR     56  48  74 N7        30.25R
TOPEKA FORBES  CLEAR     58  49  72 N6        30.25R
$$




USA.gov is the U.S. government's official web portal to all federal, state and local government web resources and services.